When you browse on this site, cookies collect data to enhance your experience and personalize the content and advertising you see.
Visit our Privacy Policy to learn more. By continuing to use the site, you agree to this use of cookies and data.
  • în România
  • Lista ţărilor
  • Pe 7 zile
  • Temperatura apei
  • Hartă satelitară
  • Meteo pe hartă
  • Widget-uri
  • user-avatar
    Intrare

    Meteo pe oră la Ascea

    Astăzi, 25 Aprilie, Joi

    Timp Temperatura Precipitaţii Vânt Presiune Umiditate
    00:00 +18°C° 0 mm 2 m/s 752 mmHg 57%
    01:00 +17°C° 0 mm 2 m/s 752 mmHg 55%
    02:00 +18°C° 0 mm 2 m/s 752 mmHg 51%
    03:00 +18°C° 0 mm 2 m/s 752 mmHg 48%
    04:00 +18°C° 0 mm 2 m/s 752 mmHg 45%
    05:00 +19°C° 0 mm 2 m/s 752 mmHg 46%
    06:00 +20°C° 0 mm 2 m/s 752 mmHg 48%
    07:00 +22°C° 0 mm 1 m/s 752 mmHg 47%
    08:00 +24°C° 0 mm 1 m/s 752 mmHg 42%
    09:00 +27°C° 0 mm 1 m/s 753 mmHg 38%
    10:00 +29°C° 0 mm 1 m/s 753 mmHg 34%
    11:00 +29°C° 0 mm 1 m/s 753 mmHg 34%
    12:00 +30°C° 0 mm 2 m/s 753 mmHg 34%
    13:00 +30°C° 0 mm 2 m/s 753 mmHg 33%
    14:00 +29°C° 0.1 mm 2 m/s 753 mmHg 37%
    15:00 +28°C° 0.1 mm 1 m/s 752 mmHg 40%
    16:00 +27°C° 0.1 mm 1 m/s 752 mmHg 44%
    17:00 +25°C° 0.1 mm 1 m/s 752 mmHg 48%
    18:00 +23°C° 0.1 mm 1 m/s 752 mmHg 53%
    19:00 +19°C° 0.1 mm 0 m/s 752 mmHg 57%
    20:00 +21°C° 0 mm 1 m/s 752 mmHg 59%
    21:00 +20°C° 0 mm 1 m/s 753 mmHg 60%
    22:00 +19°C° 0 mm 2 m/s 753 mmHg 62%
    23:00 +19°C° 0 mm 2 m/s 753 mmHg 63%

    Mâine, 26 Aprilie, Vineri

    Timp Temperatura Precipitaţii Vânt Presiune Umiditate
    00:00 +19°C° 0 mm 2 m/s 753 mmHg 64%
    01:00 +18°C° 0 mm 2 m/s 753 mmHg 66%
    02:00 +18°C° 0 mm 2 m/s 753 mmHg 67%
    03:00 +18°C° 0 mm 2 m/s 753 mmHg 69%
    04:00 +18°C° 0 mm 2 m/s 752 mmHg 70%
    05:00 +19°C° 0 mm 2 m/s 752 mmHg 69%
    06:00 +20°C° 0 mm 2 m/s 753 mmHg 68%
    07:00 +20°C° 0 mm 2 m/s 753 mmHg 67%
    08:00 +23°C° 0 mm 2 m/s 753 mmHg 63%
    09:00 +24°C° 0 mm 2 m/s 753 mmHg 58%
    10:00 +25°C° 0 mm 2 m/s 753 mmHg 54%
    11:00 +26°C° 0 mm 2 m/s 752 mmHg 53%
    12:00 +26°C° 0 mm 3 m/s 752 mmHg 51%
    13:00 +26°C° 0 mm 3 m/s 752 mmHg 50%
    14:00 +25°C° 0 mm 2 m/s 752 mmHg 53%
    15:00 +24°C° 0 mm 2 m/s 751 mmHg 57%
    16:00 +24°C° 0 mm 2 m/s 751 mmHg 60%
    17:00 +21°C° 0 mm 2 m/s 751 mmHg 69%
    18:00 +20°C° 0 mm 1 m/s 751 mmHg 78%
    19:00 +18°C° 0 mm 1 m/s 751 mmHg 87%
    20:00 +16°C° 0 mm 1 m/s 751 mmHg 88%
    21:00 +16°C° 0 mm 1 m/s 752 mmHg 89%
    22:00 +15°C° 0 mm 1 m/s 752 mmHg 90%
    23:00 +15°C° 0 mm 1 m/s 752 mmHg 90%

    Poimâine, 27 Aprilie, Sâmbătă

    Timp Temperatura Precipitaţii Vânt Presiune Umiditate
    00:00 +15°C° 0 mm 2 m/s 752 mmHg 90%
    01:00 +15°C° 0 mm 2 m/s 752 mmHg 90%
    02:00 +14°C° 0 mm 2 m/s 752 mmHg 88%
    03:00 +13°C° 0 mm 3 m/s 752 mmHg 87%
    04:00 +13°C° 0 mm 3 m/s 752 mmHg 85%
    05:00 +13°C° 0 mm 3 m/s 752 mmHg 81%
    06:00 +14°C° 0 mm 3 m/s 752 mmHg 76%
    07:00 +16°C° 0 mm 3 m/s 753 mmHg 71%
    08:00 +17°C° 0 mm 3 m/s 753 mmHg 66%
    09:00 +18°C° 0 mm 3 m/s 753 mmHg 60%
    10:00 +19°C° 0 mm 3 m/s 753 mmHg 54%
    11:00 +19°C° 0 mm 3 m/s 753 mmHg 56%
    12:00 +19°C° 0 mm 3 m/s 753 mmHg 57%
    13:00 +19°C° 0 mm 3 m/s 753 mmHg 59%
    14:00 +19°C° 0 mm 3 m/s 753 mmHg 62%
    15:00 +18°C° 0 mm 3 m/s 753 mmHg 65%
    16:00 +18°C° 0 mm 3 m/s 752 mmHg 68%
    17:00 +16°C° 0 mm 2 m/s 752 mmHg 75%
    18:00 +15°C° 0 mm 2 m/s 753 mmHg 82%
    19:00 +14°C° 0 mm 1 m/s 753 mmHg 89%
    20:00 +14°C° 0 mm 1 m/s 753 mmHg 91%
    21:00 +13°C° 0 mm 1 m/s 753 mmHg 92%
    22:00 +13°C° 0 mm 1 m/s 754 mmHg 94%
    23:00 +13°C° 0 mm 1 m/s 753 mmHg 94%

    28 Aprilie, Duminică

    Timp Temperatura Precipitaţii Vânt Presiune Umiditate
    00:00 +12°C° 0 mm 1 m/s 753 mmHg 94%
    01:00 +12°C° 0 mm 1 m/s 753 mmHg 94%
    02:00 +13°C° 0 mm 1 m/s 753 mmHg 94%
    03:00 +13°C° 0 mm 1 m/s 752 mmHg 93%
    04:00 +13°C° 0 mm 1 m/s 752 mmHg 92%
    05:00 +13°C° 0 mm 1 m/s 752 mmHg 90%
    06:00 +14°C° 0 mm 1 m/s 752 mmHg 88%
    07:00 +14°C° 0 mm 1 m/s 752 mmHg 86%
    08:00 +15°C° 0.1 mm 1 m/s 752 mmHg 84%
    09:00 +15°C° 0.1 mm 1 m/s 752 mmHg 82%
    10:00 +16°C° 0.1 mm 2 m/s 752 mmHg 80%
    11:00 +15°C° 0.2 mm 2 m/s 752 mmHg 82%
    12:00 +15°C° 0.2 mm 2 m/s 751 mmHg 84%
    13:00 +15°C° 0.2 mm 2 m/s 751 mmHg 87%
    14:00 +15°C° 0.1 mm 2 m/s 751 mmHg 84%
    15:00 +15°C° 0.1 mm 2 m/s 750 mmHg 82%
    16:00 +15°C° 0.1 mm 2 m/s 750 mmHg 80%
    17:00 +14°C° 0 mm 2 m/s 750 mmHg 82%
    18:00 +14°C° 0 mm 1 m/s 750 mmHg 84%
    19:00 +13°C° 0 mm 1 m/s 750 mmHg 86%
    20:00 +13°C° 0 mm 2 m/s 750 mmHg 88%
    21:00 +13°C° 0 mm 2 m/s 750 mmHg 89%
    22:00 +13°C° 0 mm 2 m/s 750 mmHg 90%
    23:00 +13°C° 0.1 mm 2 m/s 750 mmHg 91%

    29 Aprilie, Luni

    Timp Temperatura Precipitaţii Vânt Presiune Umiditate
    00:00 +13°C° 0.1 mm 2 m/s 750 mmHg 93%
    01:00 +12°C° 0.1 mm 3 m/s 750 mmHg 94%
    02:00 +13°C° 0.1 mm 2 m/s 749 mmHg 93%
    03:00 +13°C° 0.1 mm 2 m/s 749 mmHg 93%
    04:00 +12°C° 0.1 mm 2 m/s 749 mmHg 92%
    05:00 +13°C° 0 mm 2 m/s 749 mmHg 89%
    06:00 +13°C° 0 mm 2 m/s 749 mmHg 87%
    07:00 +14°C° 0 mm 2 m/s 749 mmHg 84%
    08:00 +14°C° 0 mm 2 m/s 749 mmHg 81%
    09:00 +14°C° 0 mm 3 m/s 749 mmHg 79%
    10:00 +14°C° 0 mm 3 m/s 750 mmHg 76%
    11:00 +14°C° 0.1 mm 3 m/s 749 mmHg 77%
    12:00 +14°C° 0.1 mm 3 m/s 749 mmHg 77%
    13:00 +14°C° 0.1 mm 3 m/s 749 mmHg 78%
    14:00 +14°C° 0.1 mm 3 m/s 749 mmHg 78%
    15:00 +15°C° 0.1 mm 2 m/s 749 mmHg 77%
    16:00 +15°C° 0.1 mm 2 m/s 748 mmHg 76%
    17:00 +14°C° 0.1 mm 2 m/s 749 mmHg 79%
    18:00 +14°C° 0.1 mm 1 m/s 749 mmHg 82%
    19:00 +13°C° 0.1 mm 1 m/s 749 mmHg 85%
    20:00 +13°C° 0 mm 1 m/s 749 mmHg 87%
    21:00 +12°C° 0 mm 1 m/s 750 mmHg 89%
    22:00 +12°C° 0 mm 1 m/s 750 mmHg 91%
    23:00 +12°C° 0 mm 1 m/s 750 mmHg 91%

    30 Aprilie, Marţi

    Timp Temperatura Precipitaţii Vânt Presiune Umiditate
    00:00 +12°C° 0 mm 2 m/s 750 mmHg 92%
    01:00 +10°C° 0 mm 2 m/s 750 mmHg 92%
    02:00 +10°C° 0 mm 2 m/s 750 mmHg 93%
    03:00 +10°C° 0 mm 2 m/s 750 mmHg 94%
    04:00 +11°C° 0 mm 1 m/s 750 mmHg 95%
    05:00 +11°C° 0 mm 1 m/s 750 mmHg 93%
    06:00 +12°C° 0 mm 1 m/s 750 mmHg 90%
    07:00 +13°C° 0 mm 1 m/s 750 mmHg 88%
    08:00 +15°C° 0 mm 2 m/s 750 mmHg 81%
    09:00 +16°C° 0 mm 2 m/s 750 mmHg 73%
    10:00 +17°C° 0 mm 2 m/s 750 mmHg 65%
    11:00 +18°C° 0 mm 2 m/s 750 mmHg 63%
    12:00 +18°C° 0 mm 2 m/s 750 mmHg 61%
    13:00 +18°C° 0 mm 3 m/s 750 mmHg 58%
    14:00 +18°C° 0 mm 2 m/s 750 mmHg 59%
    15:00 +18°C° 0 mm 2 m/s 749 mmHg 60%
    16:00 +18°C° 0 mm 2 m/s 749 mmHg 61%
    17:00 +16°C° 0 mm 1 m/s 749 mmHg 69%
    18:00 +14°C° 0 mm 1 m/s 749 mmHg 77%
    19:00 +13°C° 0 mm 1 m/s 749 mmHg 85%
    20:00 +12°C° 0 mm 1 m/s 749 mmHg 86%
    21:00 +12°C° 0 mm 1 m/s 749 mmHg 88%
    22:00 +11°C° 0 mm 1 m/s 750 mmHg 89%
    23:00 +11°C° 0 mm 1 m/s 749 mmHg 90%
    Arată mai mult